Find Kosmos-1141

NORAD ID: 11585 Int'l Des: 1979-090 Owner: VMF Country: SU operational
LEOCIRCULARPOLAR

Live-Position

3D-Globus wird geladen...

Über Kosmos-1141

Beschreibung wird geladen...

Nächste Überflüge

Passes for default location (London). Set your location on the main map for personalized predictions.

Höhenverlauf

Loading altitude history...

Zweizeiliger Elementsatz

1 11585U 79090A 26105.60513399 .00000032 00000-0 17533-4 0 9993
2 11585 82.9486 237.4787 0028136 312.8008 57.7601 13.77192822317031
Epoch: 15. Apr. 2026 • Age: 25 hours

Aktueller Status

Höhe 989.3 km
Geschwindigkeit 7.36 km/s
Subsatellitenpunkt -46.24°S, 20.46°W
Startdatum 16. Okt. 1979
Alter 46.4 years
Typ other

Technische Details

Klassifizierung Payload
Masse 800.00 kg
Trockenmasse 800.00 kg
Gesamtmasse 800.00 kg
Länge 5.00 m
Durchmesser 2.10 m
Spannweite 17.00 m
Form Cyl + Ant
Hersteller OAZ
Bus-Typ KAUR-1 11F627
Phasenstatus In Orbit
Besitzer/Staat VMF/SU

Most Searched